Date String (YYYY-MM-DD hh:mm:ss) UTC,Instrument flags,Ambient pressure (hPa),Sample flow (lpm),Bypass flow (lpm),Sample temperature (°C),Ambient temperature (°C),ASC tube jacket temperature (°C),LED temperature (°C),Box temperature (°C),Sample RH (%),Span deviation,Mass concentration (μg/m³),Mass concentration (μg/m³),Mass concentration (μg/m³)
DateTimeUTC,F1_M11,P_M11,Q1_M11,Q2_M11,T1_M11,T2_M11,T3_M11,T4_M11,T5_M11,U1_M11,ZSPAN_M11,X0_M11,X2_M11,X1_M11
2022-05-22 11:00:00,,0832.0,4.99,0.00,23.2,22.2,00.0,32.1,25.0,15.1,0000.0,0000.10,0000.02,0000.00
2022-05-22 11:01:00,,0831.9,5.00,0.00,23.2,22.2,00.0,32.1,25.0,15.0,0000.0,0000.12,0000.02,0000.00
2022-05-22 11:02:00,,0831.9,4.99,0.00,23.2,22.2,00.0,32.1,25.0,14.9,0000.0,0000.14,0000.03,0000.00
2022-05-22 11:03:00,,0831.8,5.00,0.00,23.2,22.2,00.0,32.1,25.0,15.0,0000.0,0000.14,0000.03,0000.00
2022-05-22 11:04:00,,0831.8,5.01,0.00,23.2,22.2,00.0,32.1,25.0,15.0,0000.0,0000.14,0000.03,0000.00
2022-05-22 11:05:00,,0831.8,5.00,0.00,23.2,22.2,00.0,32.1,25.0,15.0,0000.0,0000.06,0000.02,0000.00
2022-05-22 11:06:00,,0831.8,5.00,0.00,23.2,22.2,00.0,32.1,25.0,14.9,0000.0,0000.05,0000.02,0000.00
2022-05-22 11:07:00,,0831.8,5.00,0.00,23.2,22.2,00.0,32.1,25.0,14.9,0000.0,0000.05,0000.02,0000.00
2022-05-22 11:08:00,,0831.9,5.00,0.00,23.2,22.2,00.0,32.1,25.0,14.9,0000.0,0000.05,0000.02,0000.00
2022-05-22 11:09:00,,0831.9,4.99,0.00,23.2,22.2,00.0,32.1,25.0,15.1,0000.0,0000.05,0000.02,0000.00
2022-05-22 11:10:00,,0831.9,4.99,0.00,23.2,22.2,00.0,32.1,25.0,15.2,0000.0,0000.05,0000.02,0000.00
2022-05-22 11:11:00,,0832.0,5.00,0.00,23.2,22.2,00.0,32.1,25.0,15.4,0000.0,0000.04,0000.01,0000.00
2022-05-22 11:12:00,,0832.0,5.01,0.00,23.1,22.1,00.0,32.1,25.0,15.5,0000.0,0000.03,0000.01,0000.00
2022-05-22 11:13:00,,0832.0,4.97,0.00,23.1,22.1,00.0,32.1,24.9,15.8,0000.0,0000.00,0000.00,0000.00
2022-05-22 11:14:00,,0832.0,4.99,0.00,23.1,22.0,00.0,32.1,24.9,16.1,0000.0,0000.00,0000.00,0000.00
2022-05-22 11:15:00,,0832.0,5.00,0.00,23.0,22.0,00.0,32.1,24.8,16.4,0000.0,0000.00,0000.00,0000.00
2022-05-22 11:16:00,,0831.9,5.00,0.00,23.0,21.9,00.0,32.1,24.8,16.6,0000.0,0000.00,0000.00,0000.00
2022-05-22 11:17:00,,0831.9,5.00,0.00,23.0,21.9,00.0,32.1,24.8,16.7,0000.0,0000.00,0000.00,0000.00
2022-05-22 11:18:00,,0831.8,4.99,0.00,23.0,21.9,00.0,32.1,24.7,16.8,0000.0,0000.00,0000.00,0000.00
2022-05-22 11:19:00,,0831.8,5.01,0.00,22.9,21.9,00.0,32.0,24.7,16.8,0000.0,0000.00,0000.00,0000.00
2022-05-22 11:20:00,,0831.8,4.99,0.00,22.9,21.8,00.0,32.0,24.7,16.9,0000.0,0000.01,0000.00,0000.00
2022-05-22 11:21:00,,0831.9,5.00,0.00,22.9,21.8,00.0,32.0,24.7,16.9,0000.0,0000.01,0000.00,0000.00
2022-05-22 11:22:00,,0832.0,5.01,0.00,22.9,21.8,00.0,32.0,24.7,17.0,0000.0,0000.01,0000.00,0000.00
2022-05-22 11:23:00,,0832.0,4.99,0.00,22.9,21.8,00.0,32.0,24.6,17.1,0000.0,0000.01,0000.00,0000.00
2022-05-22 11:24:00,,0832.0,5.00,0.00,22.8,21.8,00.0,32.0,24.6,17.1,0000.0,0000.01,0000.00,0000.00
2022-05-22 11:25:00,,0832.0,5.01,0.00,22.8,21.8,00.0,31.9,24.6,17.2,0000.0,0000.01,0000.00,0000.00
2022-05-22 11:26:00,,0832.1,4.99,0.00,22.8,21.8,00.0,31.9,24.6,17.2,0000.0,0000.01,0000.00,0000.00
2022-05-22 11:27:00,,0832.1,5.00,0.00,22.8,21.7,00.0,31.9,24.6,17.1,0000.0,0000.01,0000.00,0000.00
2022-05-22 11:28:00,,0832.1,5.00,0.00,22.8,21.7,00.0,31.9,24.6,17.1,0000.0,0000.01,0000.01,0000.00
2022-05-22 11:29:00,,0832.1,5.00,0.00,22.8,21.7,00.0,31.9,24.5,16.9,0000.0,0000.01,0000.01,0000.00
2022-05-22 11:30:00,,0832.1,5.00,0.00,22.7,21.7,00.0,31.9,24.5,16.9,0000.0,0000.01,0000.01,0000.01
2022-05-22 11:31:00,,0832.2,5.00,0.00,22.7,21.7,00.0,31.8,24.5,16.8,0000.0,0000.01,0000.01,0000.00
2022-05-22 11:32:00,,0832.1,4.99,0.00,22.7,21.7,00.0,31.8,24.5,16.7,0000.0,0000.01,0000.01,0000.00
2022-05-22 11:33:00,,0832.1,5.00,0.00,22.7,21.7,00.0,31.8,24.6,16.7,0000.0,0000.01,0000.01,0000.00
2022-05-22 11:34:00,,0832.1,5.01,0.00,22.7,21.7,00.0,31.8,24.6,16.6,0000.0,0000.01,0000.01,0000.00
2022-05-22 11:35:00,,0832.1,5.01,0.00,22.7,21.7,00.0,31.8,24.6,16.6,0000.0,0000.01,0000.01,0000.00
2022-05-22 11:36:00,,0832.1,4.99,0.00,22.7,21.7,00.0,31.8,24.6,16.7,0000.0,0000.01,0000.01,0000.00
2022-05-22 11:37:00,,0832.1,5.00,0.00,22.8,21.8,00.0,31.8,24.6,16.7,0000.0,0000.01,0000.01,0000.00
2022-05-22 11:38:00,,0832.1,5.00,0.00,22.8,21.8,00.0,31.8,24.6,16.6,0000.0,0000.01,0000.00,0000.00
2022-05-22 11:39:00,,0832.1,5.00,0.00,22.8,21.8,00.0,31.8,24.6,16.3,0000.0,0000.00,0000.00,0000.00
2022-05-22 11:40:00,,0832.1,5.01,0.00,22.8,21.8,00.0,31.8,24.6,16.1,0000.0,0000.00,0000.00,0000.00
2022-05-22 11:41:00,,0832.1,4.99,0.00,22.8,21.8,00.0,31.8,24.7,16.1,0000.0,0000.00,0000.00,0000.00
2022-05-22 11:42:00,,0832.1,5.00,0.00,22.8,21.8,00.0,31.8,24.7,16.1,0000.0,0000.02,0000.02,0000.00
2022-05-22 11:43:00,,0832.1,5.00,0.00,22.8,21.9,00.0,31.8,24.7,16.0,0000.0,0000.06,0000.02,0000.00
2022-05-22 11:44:00,,0832.1,5.00,0.00,22.8,21.9,00.0,31.8,24.7,16.0,0000.0,0000.27,0000.03,0000.00
2022-05-22 11:45:00,,0832.1,5.00,0.00,22.8,21.9,00.0,31.8,24.8,16.3,0000.0,0000.32,0000.05,0000.00
2022-05-22 11:46:00,,0832.2,5.00,0.00,22.8,21.9,00.0,31.8,24.8,16.8,0000.0,0000.32,0000.05,0000.00
2022-05-22 11:47:00,,0832.1,4.99,0.00,22.8,22.0,00.0,31.8,24.8,16.3,0000.0,0000.32,0000.05,0000.01
2022-05-22 11:48:00,,0832.1,5.01,0.00,22.9,22.0,00.0,31.8,24.8,16.0,0000.0,0000.32,0000.05,0000.01
2022-05-22 11:49:00,,0832.1,4.99,0.00,22.9,22.0,00.0,31.8,24.8,15.9,0000.0,0000.32,0000.05,0000.01
2022-05-22 11:50:00,,0832.1,5.01,0.00,22.9,22.0,00.0,31.8,24.8,15.8,0000.0,0000.32,0000.05,0000.01
2022-05-22 11:51:00,,0832.0,5.00,0.00,22.9,22.0,00.0,31.8,24.8,15.8,0000.0,0000.34,0000.05,0000.01
2022-05-22 11:52:00,,0832.0,5.00,0.00,22.9,22.0,00.0,31.8,24.8,15.8,0000.0,0000.42,0000.06,0000.01
2022-05-22 11:53:00,,0832.1,5.00,0.00,22.9,22.0,00.0,31.8,24.8,15.8,0000.0,0000.40,0000.04,0000.00
2022-05-22 11:54:00,,0832.1,5.01,0.00,22.9,22.1,00.0,31.8,24.8,15.8,0000.0,0000.36,0000.04,0000.01
2022-05-22 11:55:00,,0832.1,5.00,0.00,22.9,22.1,00.0,31.8,24.9,15.7,0000.0,0000.15,0000.03,0000.01
2022-05-22 11:56:00,,0832.1,4.99,0.00,22.9,22.1,00.0,31.8,24.9,15.7,0000.0,0000.36,0000.02,0000.00
2022-05-22 11:57:00,,0832.1,5.00,0.00,22.9,22.1,00.0,31.8,24.9,15.7,0000.0,0001.26,0000.02,0000.00
2022-05-22 11:58:00,,0832.1,5.00,0.00,23.0,22.1,00.0,31.8,24.9,15.7,0000.0,0001.26,0000.02,0000.00
2022-05-22 11:59:00,,0832.1,5.00,0.00,23.0,22.1,00.0,31.9,24.9,15.7,0000.0,0001.26,0000.02,0000.00
